Temp
31 31 31 31 31 30 29 29 30 30 29 27 26 26 26 26 26 26 26 25 25 26 25 24 24 23 21 20 20 20 20 20 20 21 23 23 21 20 19 19 18 18 18 18 18 18 18 18 18 20 22 23 22 21 21 21 20 20 20 20 21 20 19 19 19 19 19 20 22
30 30 31 33 33 32 30 29 30 30 29 27 27 26 26 26 26 26 25 24 25 25 25 25 23 22 21 20 21 21 21 21 20 21 22 22 21 20 19 19 18 18 18 18 18 18 19 18 18 20 22 22 22 22 21 22 20 19 19 19 20 20 20 20 20 20 20 21 23
31 30 31 31 32 31 29 28 28 28 28 27 26 26 26 26 26 26 26 25 24 24 23 24 23 22 21 20 21 21 21 21 21 21 21 21 20 20 19 20 19 19 20 20 19 19 20 19 19 21 23 23 22 22 22 21 20 20 19 19 20 21 22 22 22 22 22 24 24
30 30 30 30 30 30 30 29 29 28 27 27 25 24 25 26 26 26 25 23 22 22 23 23 23 22 22 22 21 21 21 23 22 21 21 21 21 20 19 19 19 19 19 19 18 18 18 18 20 21 22 21 20 21 22 22 21 21 21 21 21 21 21 22 22 23 24 25 25
30 30 30 30 30 30 30 30 29 28 27 27 25 25 25 25 25 25 23 23 23 24 24 22 23 23 23 23 21 21 21 22 25 24 22 21 21 20 20 19 19 19 19 19 18 18 18 17 20 21 21 20 21 22 22 21 20 20 21 22 22 22 22 23 24 24 25 25 26
30 30 30 30 30 30 30 30 29 28 27 27 25 25 25 25 25 25 25 25 24 23 22 23 24 24 24 22 21 21 21 21 23 24 23 22 22 21 20 19 19 19 19 19 18 18 18 17 20 21 22 22 22 22 21 19 20 20 20 21 22 22 22 22 23 24 25 25 25
31 30 30 30 29 30 30 29 28 27 26 25 25 25 25 25 25 25 25 25 24 23 23 25 25 25 24 22 22 21 21 22 22 22 22 22 22 21 20 20 19 19 19 19 18 18 18 17 20 21 23 24 24 22 20 19 20 20 20 20 22 22 22 21 22 24 24 24 24
31 30 30 30 29 29 29 28 27 26 25 26 25 25 25 25 25 24 24 24 23 23 24 26 24 24 24 23 23 22 22 22 22 22 22 22 21 21 20 20 19 19 19 19 18 18 18 18 20 21 22 23 23 22 21 19 18 18 19 20 21 21 21 21 21 22 23 23 23
31 30 30 29 29 29 28 28 27 26 26 26 26 26 25 25 24 24 24 24 25 25 25 25 24 23 23 23 23 23 23 23 23 22 22 22 21 21 20 20 19 19 19 19 19 18 18 19 21 21 22 22 23 22 21 19 18 18 18 19 20 21 21 21 21 21 21 22 22
31 30 29 28 28 28 28 27 27 26 26 26 26 25 26 27 26 25 25 26 26 25 24 24 23 23 23 23 23 23 23 23 23 23 22 22 22 22 21 20 20 20 20 20 20 19 18 19 20 21 21 21 21 20 20 19 18 18 18 20 20 20 20 20 20 20 21 21 22
31 30 29 29 28 27 27 26 26 26 26 26 26 25 26 28 27 26 26 26 25 24 24 24 23 23 23 23 24 24 24 24 24 23 23 22 23 22 21 21 20 20 20 20 20 20 19 20 20 20 20 20 20 20 19 19 18 18 18 19 20 19 19 19 20 20 20 21 21
31 30 29 29 28 27 27 26 26 26 26 26 26 25 25 26 26 26 26 25 25 24 24 24 23 23 23 24 24 24 25 24 23 23 23 22 22 22 21 21 20 20 20 20 20 20 20 20 20 20 20 20 20 20 19 18 18 18 18 18 19 19 19 19 20 20 20 21 21
31 30 29 28 27 26 26 26 26 26 26 26 26 26 25 26 26 26 26 25 25 25 25 24 24 24 24 25 24 24 24 24 23 23 23 23 22 22 21 20 20 20 20 20 20 20 20 20 19 19 19 19 20 20 20 19 18 18 18 18 18 18 19 19 19 20 20 21 22
31 30 29 28 27 26 26 26 26 26 26 26 26 26 26 26 26 26 26 25 25 25 25 25 25 25 25 25 25 25 24 24 23 23 23 23 22 22 21 21 20 20 20 21 20 20 19 19 19 19 19 19 20 20 20 19 18 18 18 18 18 18 19 19 20 20 20 21 22
30 29 28 27 26 26 26 26 26 26 26 26 26 26 26 26 26 27 27 25 25 26 25 25 25 25 26 25 25 25 25 24 23 23 23 23 22 22 22 21 21 20 20 21 21 20 19 19 19 19 19 19 20 20 19 19 19 19 19 18 18 19 19 19 20 20 20 21 22
30 29 28 27 26 26 26 26 27 27 27 26 26 26 26 26 26 27 27 26 26 26 26 25 25 25 25 25 25 25 25 24 23 23 22 22 22 22 22 21 21 21 20 21 21 20 20 19 19 19 19 19 20 20 19 19 19 19 19 19 19 19 19 20 20 21 21 22 23
29 29 28 27 27 26 26 27 27 27 27 27 26 26 26 26 26 26 27 27 26 26 25 25 25 25 25 25 26 25 25 24 23 23 23 22 22 22 22 22 21 21 21 20 20 20 20 20 20 20 19 19 19 19 19 19 19 19 19 19 19 19 20 21 21 21 22 23 23
29 28 28 27 27 26 26 26 27 27 27 27 26 26 26 26 26 26 27 27 26 26 25 25 25 25 25 24 25 25 25 24 24 23 23 23 23 23 22 22 22 22 21 21 20 20 20 20 20 20 20 20 19 19 20 20 20 20 20 19 19 19 20 20 21 21 22 23 24
29 28 28 27 27 26 27 27 27 27 27 27 27 26 26 26 25 26 26 27 27 26 25 25 25 25 24 24 24 25 26 25 24 24 23 23 23 23 23 22 22 22 21 21 21 21 21 21 20 20 20 20 20 20 20 20 20 20 20 20 20 20 20 20 21 22 22 23 24
29 28 28 27 27 27 27 27 27 27 27 27 27 26 26 26 25 25 26 26 27 27 26 25 25 25 24 24 24 25 25 26 25 24 24 23 23 23 23 23 22 22 21 20 20 20 21 21 20 20 20 20 20 20 20 20 20 20 20 20 20 20 20 21 21 22 23 24 25
29 29 28 28 27 27 27 27 27 27 27 27 27 26 26 26 25 25 26 26 27 27 26 26 25 25 25 24 24 24 24 26 25 24 24 24 23 23 23 23 22 22 21 20 20 20 20 21 20 20 20 20 20 20 20 20 20 20 20 21 21 21 21 22 23 23 24 25 26
29 29 28 28 27 27 27 27 27 27 27 27 27 26 26 26 25 26 26 26 27 26 26 26 26 26 25 25 24 24 24 26 25 24 24 24 24 24 24 24 22 22 21 20 20 20 20 21 20 20 20 20 20 20 20 20 21 21 21 21 22 22 22 23 24 25 25 26 26
29 29 28 28 27 28 28 28 27 27 27 27 26 26 26 26 26 26 26 26 26 26 26 26 26 26 25 25 25 24 24 25 24 24 24 24 23 23 23 23 22 22 21 21 21 21 20 20 20 20 19 19 19 19 20 20 21 21 22 22 23 23 24 25 26 27 27 27 27
29 29 28 28 27 27 28 27 27 27 27 27 26 26 26 26 26 26 25 25 26 26 26 26 26 26 26 25 25 24 24 24 24 23 23 23 23 23 23 23 22 22 21 21 22 23 23 22 22 21 21 21 21 21 21 22 22 23 24 25 26 27 27 27 27 26 26 25 25
29 28 28 28 27 27 27 27 27 27 27 27 26 26 26 26 26 25 25 25 25 25 26 26 26 26 25 25 25 24 24 24 24 23 23 23 23 23 23 22 22 22 22 23 26 29 30 30 28 27 26 25 25 25 25 25 26 26 27 28 29 30 29 27 26 25 24 23 22
28 28 28 28 27 27 27 27 27 27 27 27 26 26 26 26 26 25 25 25 25 25 25 25 25 26 26 25 24 24 24 24 24 23 23 23 22 22 22 23 23 22 22 25 29 31 33 34 34 33 32 30 30 30 29 29 29 29 30 31 31 30 29 27 25 24 23 23 21
28 28 28 28 27 27 27 27 27 27 27 26 26 26 26 26 26 25 25 25 25 25 25 25 25 26 27 25 24 23 23 24 24 23 23 23 23 22 23 23 23 23 23 27 30 33 34 35 36 36 35 33 32 32 31 31 31 31 31 31 30 28 27 26 25 24 23 23 21
28 28 28 28 28 27 27 27 27 27 27 26 26 26 26 26 25 25 25 25 25 25 25 25 25 26 27 26 25 24 23 23 24 23 23 23 23 23 23 23 23 24 26 30 32 34 35 36 37 37 37 36 34 32 32 31 31 31 31 30 28 27 26 25 23 22 21 20 19
29 29 28 28 28 28 28 27 27 27 27 27 27 26 26 26 25 25 25 25 25 25 25 25 26 26 26 26 25 24 24 24 24 24 23 23 23 23 23 23 23 25 28 32 33 35 36 37 37 38 38 38 35 34 33 33 32 32 31 29 28 26 25 23 22 21 20 19 19
29 29 29 28 28 28 28 27 27 27 27 27 27 26 26 25 25 25 25 25 25 25 25 26 26 26 25 26 25 25 24 24 24 23 23 22 22 22 23 24 24 25 28 32 34 35 36 37 37 38 38 39 37 35 34 33 32 31 30 29 27 26 24 22 20 19 18 19 18
29 29 29 28 28 28 28 28 28 27 27 27 27 26 26 25 25 25 26 26 26 26 27 26 25 25 25 26 25 25 25 24 24 23 23 22 23 24 24 24 24 25 28 32 34 35 36 37 37 38 38 39 37 36 34 33 32 30 29 28 27 25 23 21 19 18 18 17 18
29 29 29 28 28 28 28 28 28 27 27 27 26 26 26 26 26 26 26 27 27 27 27 26 25 25 25 25 25 25 24 24 24 24 23 23 23 23 24 24 24 25 28 32 34 35 36 37 37 38 38 39 38 36 34 33 31 29 28 27 26 24 22 21 20 18 17 17 17
28 29 29 28 28 28 28 28 27 27 27 27 26 26 26 26 26 26 26 27 27 27 26 25 25 25 25 25 25 24 24 24 24 25 25 25 24 24 24 25 24 26 29 32 34 35 36 37 37 38 38 39 37 35 33 31 29 27 26 25 24 23 21 19 18 18 17 17 18
28 28 28 28 28 28 28 27 27 27 27 26 26 26 26 26 26 26 26 27 27 27 26 26 26 26 26 26 25 25 25 25 25 25 25 25 24 24 24 24 25 27 31 33 34 35 36 37 37 38 38 39 36 34 32 29 28 26 25 24 23 21 19 17 17 17 17 17 18
28 28 28 28 28 28 27 27 27 27 26 26 26 26 26 26 26 26 26 27 27 27 26 26 26 26 26 26 26 25 25 26 25 25 24 24 24 24 24 24 25 28 31 33 34 36 36 37 37 38 38 38 35 33 30 29 28 27 25 24 22 20 18 16 16 16 16 17 18
28 28 28 28 28 28 27 27 27 26 26 26 26 26 26 26 26 26 27 28 28 27 26 26 26 26 26 26 26 26 26 25 25 25 25 24 24 23 23 24 24 27 31 33 34 35 36 37 37 38 37 36 34 32 30 29 29 27 25 23 23 21 20 18 17 16 17 18 18
28 28 28 28 28 28 28 27 27 26 26 26 26 26 26 26 26 27 27 28 27 26 25 26 26 25 25 25 25 26 26 26 25 25 25 25 25 24 23 24 23 26 29 32 34 35 36 36 37 37 36 34 33 31 30 30 29 27 26 24 23 22 20 20 18 17 17 17 19
29 29 29 28 28 28 28 27 27 26 26 26 26 26 26 26 26 27 27 28 27 26 25 25 25 25 25 26 25 25 26 26 26 25 25 25 25 25 24 24 23 25 27 31 33 34 35 36 37 37 36 34 32 31 30 29 28 27 26 25 24 22 21 21 20 19 18 18 23
29 29 29 29 28 28 28 27 27 27 26 26 26 27 27 27 26 27 27 29 27 27 26 25 25 26 26 26 26 25 25 25 26 26 25 25 25 26 26 25 24 25 27 30 32 34 35 36 36 37 36 34 32 30 29 28 27 26 26 25 25 23 22 21 20 20 20 19 26
29 29 29 29 29 29 28 27 27 27 27 27 27 27 27 27 27 28 28 29 28 27 27 26 26 26 27 27 26 25 24 24 25 25 26 26 26 28 28 27 25 25 27 30 32 34 35 36 36 37 36 34 31 30 29 28 27 26 26 26 25 24 23 21 20 19 19 19 24
29 29 29 29 29 29 28 28 27 27 27 27 27 27 27 28 28 28 28 28 28 27 27 27 26 26 27 28 26 25 24 24 24 25 25 26 27 28 29 28 26 25 26 29 32 33 35 35 36 36 36 34 31 31 30 29 28 27 27 26 26 25 24 22 20 20 19 19 19
MSLP
1020.43 1020.59 1020.71 1020.91 1021.11 1021.27 1021.47 1021.59 1021.75 1021.95 1022.15 1022.43 1022.59 1022.79 1022.99 1023.19 1023.39 1023.55 1023.71 1023.87 1023.99 1024.11 1024.23 1024.35 1024.51 1024.71 1024.91 1025.15 1025.27 1025.43 1025.59 1025.75 1025.87 1025.99 1026.07 1026.15 1026.27 1026.35 1026.43 1026.51 1026.59 1026.63 1026.67 1026.71 1026.75 1026.79 1026.83 1026.87 1026.91 1026.91 1026.87 1026.79 1026.71 1026.71 1026.63 1026.59 1026.59 1026.59 1026.55 1026.51 1026.43 1026.43 1026.43 1026.51 1026.43 1026.43 1026.43 1026.43 1026.27
1020.03 1020.19 1020.39 1020.51 1020.67 1020.91 1021.15 1021.35 1021.55 1021.71 1021.87 1022.03 1022.19 1022.39 1022.59 1022.79 1022.99 1023.19 1023.39 1023.55 1023.59 1023.71 1023.87 1024.11 1024.27 1024.47 1024.67 1024.87 1024.99 1025.15 1025.35 1025.51 1025.63 1025.75 1025.83 1025.91 1025.99 1026.11 1026.19 1026.27 1026.35 1026.39 1026.43 1026.47 1026.59 1026.59 1026.63 1026.63 1026.71 1026.71 1026.63 1026.55 1026.51 1026.47 1026.39 1026.31 1026.39 1026.39 1026.35 1026.27 1026.23 1026.23 1026.27 1026.27 1026.15 1026.15 1026.15 1026.11 1025.99
1019.59 1019.87 1020.11 1020.27 1020.39 1020.59 1020.83 1021.03 1021.19 1021.35 1021.51 1021.71 1021.87 1022.07 1022.27 1022.43 1022.63 1022.83 1022.99 1023.15 1023.27 1023.47 1023.71 1023.87 1024.03 1024.23 1024.43 1024.59 1024.75 1024.87 1025.03 1025.19 1025.39 1025.51 1025.63 1025.71 1025.79 1025.91 1025.99 1026.03 1026.11 1026.15 1026.19 1026.23 1026.31 1026.35 1026.35 1026.39 1026.43 1026.43 1026.39 1026.27 1026.27 1026.23 1026.15 1026.11 1026.15 1026.15 1026.11 1025.99 1025.99 1025.99 1025.99 1025.91 1025.87 1025.87 1025.83 1025.71 1025.59
1019.23 1019.51 1019.71 1019.87 1019.95 1020.11 1020.27 1020.43 1020.71 1020.91 1021.15 1021.35 1021.59 1021.87 1021.99 1022.15 1022.31 1022.51 1022.71 1022.95 1023.15 1023.35 1023.47 1023.55 1023.79 1023.95 1024.15 1024.35 1024.55 1024.67 1024.79 1024.91 1025.11 1025.27 1025.39 1025.47 1025.59 1025.67 1025.75 1025.83 1025.87 1025.91 1025.95 1025.99 1026.03 1026.11 1026.15 1026.15 1026.19 1026.19 1026.15 1026.11 1026.07 1025.99 1025.95 1025.87 1025.87 1025.91 1025.87 1025.71 1025.71 1025.71 1025.71 1025.67 1025.63 1025.59 1025.55 1025.39 1025.23
1018.87 1019.03 1019.15 1019.31 1019.43 1019.55 1019.71 1019.91 1020.19 1020.47 1020.75 1021.03 1021.31 1021.59 1021.79 1021.95 1022.11 1022.27 1022.55 1022.79 1022.91 1022.99 1023.11 1023.27 1023.47 1023.71 1023.87 1024.07 1024.27 1024.43 1024.59 1024.67 1024.75 1024.91 1025.11 1025.27 1025.31 1025.43 1025.47 1025.59 1025.63 1025.67 1025.71 1025.75 1025.79 1025.83 1025.87 1025.95 1025.99 1025.99 1025.95 1025.87 1025.87 1025.79 1025.71 1025.71 1025.71 1025.67 1025.59 1025.47 1025.47 1025.47 1025.43 1025.43 1025.35 1025.31 1025.23 1025.07 1024.87
1018.31 1018.51 1018.67 1018.87 1019.03 1019.23 1019.43 1019.63 1019.87 1020.15 1020.43 1020.75 1021.03 1021.27 1021.47 1021.63 1021.83 1022.03 1022.23 1022.39 1022.51 1022.67 1022.87 1023.07 1023.27 1023.43 1023.63 1023.83 1023.99 1024.19 1024.35 1024.47 1024.55 1024.71 1024.87 1024.95 1025.03 1025.15 1025.23 1025.31 1025.35 1025.39 1025.43 1025.47 1025.55 1025.59 1025.67 1025.75 1025.75 1025.71 1025.71 1025.67 1025.59 1025.51 1025.47 1025.51 1025.51 1025.47 1025.39 1025.27 1025.23 1025.19 1025.15 1025.15 1025.11 1025.03 1024.95 1024.75 1024.59
1017.75 1018.03 1018.27 1018.51 1018.71 1018.99 1019.19 1019.39 1019.63 1019.91 1020.19 1020.51 1020.71 1020.87 1021.03 1021.23 1021.43 1021.63 1021.79 1021.91 1022.19 1022.47 1022.71 1022.87 1022.99 1023.15 1023.35 1023.59 1023.79 1023.95 1024.07 1024.23 1024.35 1024.47 1024.59 1024.71 1024.79 1024.87 1024.99 1025.03 1025.07 1025.15 1025.19 1025.23 1025.27 1025.35 1025.43 1025.59 1025.55 1025.51 1025.43 1025.35 1025.27 1025.23 1025.19 1025.27 1025.27 1025.27 1025.15 1025.03 1024.95 1024.87 1024.87 1024.91 1024.87 1024.79 1024.67 1024.51 1024.35
1017.47 1017.71 1017.95 1018.19 1018.43 1018.71 1018.91 1019.11 1019.43 1019.71 1019.99 1020.15 1020.31 1020.43 1020.59 1020.79 1021.03 1021.23 1021.43 1021.71 1021.95 1022.19 1022.39 1022.47 1022.71 1022.87 1023.03 1023.27 1023.43 1023.59 1023.75 1023.91 1024.11 1024.23 1024.35 1024.47 1024.59 1024.67 1024.71 1024.79 1024.87 1024.91 1024.95 1024.99 1025.07 1025.15 1025.19 1025.27 1025.27 1025.27 1025.19 1025.15 1025.07 1024.99 1024.99 1025.03 1025.07 1025.03 1024.91 1024.83 1024.71 1024.63 1024.59 1024.59 1024.59 1024.51 1024.43 1024.27 1024.11
1017.27 1017.47 1017.71 1017.99 1018.19 1018.43 1018.63 1018.87 1019.11 1019.35 1019.55 1019.71 1019.87 1019.99 1020.23 1020.47 1020.71 1020.91 1021.19 1021.43 1021.55 1021.79 1021.99 1022.19 1022.39 1022.59 1022.75 1022.91 1023.11 1023.27 1023.43 1023.59 1023.75 1023.91 1024.07 1024.19 1024.31 1024.43 1024.47 1024.55 1024.63 1024.67 1024.71 1024.71 1024.79 1024.87 1024.95 1024.99 1024.99 1024.99 1024.95 1024.91 1024.87 1024.79 1024.75 1024.79 1024.87 1024.83 1024.71 1024.59 1024.43 1024.35 1024.31 1024.27 1024.27 1024.23 1024.15 1024.03 1023.87
1016.87 1017.15 1017.43 1017.75 1017.95 1018.15 1018.43 1018.67 1018.87 1019.03 1019.23 1019.39 1019.55 1019.71 1019.99 1020.19 1020.39 1020.59 1020.83 1020.99 1021.19 1021.51 1021.71 1021.87 1022.07 1022.31 1022.55 1022.67 1022.75 1022.91 1023.07 1023.27 1023.43 1023.59 1023.75 1023.95 1024.03 1024.15 1024.19 1024.27 1024.35 1024.39 1024.43 1024.47 1024.55 1024.63 1024.71 1024.75 1024.71 1024.71 1024.71 1024.67 1024.63 1024.59 1024.55 1024.59 1024.67 1024.63 1024.51 1024.35 1024.19 1024.11 1023.99 1023.95 1023.95 1023.99 1023.91 1023.79 1023.63
1016.47 1016.79 1017.11 1017.39 1017.63 1017.91 1018.23 1018.51 1018.71 1018.87 1018.99 1019.15 1019.31 1019.55 1019.71 1019.87 1020.07 1020.27 1020.43 1020.67 1020.99 1021.23 1021.39 1021.55 1021.79 1022.03 1022.19 1022.31 1022.47 1022.59 1022.75 1022.95 1023.15 1023.27 1023.43 1023.59 1023.71 1023.83 1023.91 1023.95 1023.99 1024.07 1024.15 1024.15 1024.27 1024.35 1024.43 1024.43 1024.47 1024.47 1024.43 1024.43 1024.43 1024.39 1024.39 1024.39 1024.43 1024.35 1024.27 1024.11 1023.99 1023.87 1023.75 1023.63 1023.63 1023.67 1023.63 1023.47 1023.31
1016.23 1016.51 1016.79 1017.07 1017.35 1017.71 1017.99 1018.27 1018.43 1018.59 1018.75 1018.91 1019.07 1019.27 1019.47 1019.59 1019.71 1019.95 1020.19 1020.51 1020.71 1020.87 1021.03 1021.27 1021.47 1021.67 1021.83 1021.99 1022.15 1022.27 1022.47 1022.67 1022.83 1022.99 1023.15 1023.31 1023.43 1023.55 1023.63 1023.67 1023.71 1023.79 1023.87 1023.87 1023.99 1024.07 1024.15 1024.15 1024.19 1024.19 1024.15 1024.15 1024.15 1024.15 1024.15 1024.15 1024.15 1024.11 1023.99 1023.83 1023.75 1023.67 1023.51 1023.35 1023.27 1023.27 1023.27 1023.19 1022.99
1015.99 1016.31 1016.63 1016.87 1017.19 1017.51 1017.75 1017.95 1018.11 1018.27 1018.43 1018.59 1018.75 1018.99 1019.15 1019.27 1019.43 1019.71 1019.99 1020.23 1020.39 1020.55 1020.75 1020.99 1021.15 1021.31 1021.47 1021.63 1021.83 1021.99 1022.19 1022.39 1022.59 1022.71 1022.87 1023.03 1023.15 1023.27 1023.39 1023.43 1023.47 1023.55 1023.55 1023.63 1023.71 1023.79 1023.87 1023.87 1023.87 1023.91 1023.95 1023.91 1023.87 1023.87 1023.87 1023.87 1023.87 1023.87 1023.71 1023.55 1023.43 1023.31 1023.19 1023.03 1022.95 1022.91 1022.91 1022.87 1022.71
1015.87 1016.15 1016.39 1016.63 1016.95 1017.23 1017.43 1017.63 1017.79 1017.95 1018.15 1018.27 1018.43 1018.63 1018.87 1019.03 1019.27 1019.47 1019.67 1019.87 1020.03 1020.23 1020.47 1020.71 1020.87 1020.99 1021.15 1021.27 1021.47 1021.71 1021.87 1022.07 1022.27 1022.43 1022.59 1022.71 1022.87 1022.99 1023.07 1023.15 1023.15 1023.27 1023.31 1023.35 1023.43 1023.51 1023.55 1023.59 1023.59 1023.63 1023.63 1023.63 1023.59 1023.55 1023.55 1023.59 1023.59 1023.55 1023.43 1023.27 1023.15 1022.99 1022.87 1022.71 1022.63 1022.59 1022.59 1022.47 1022.27
1015.71 1015.87 1016.11 1016.43 1016.67 1016.87 1017.07 1017.27 1017.43 1017.59 1017.79 1017.95 1018.11 1018.31 1018.55 1018.79 1018.99 1019.15 1019.35 1019.55 1019.75 1019.95 1020.15 1020.43 1020.59 1020.71 1020.83 1020.99 1021.19 1021.39 1021.55 1021.79 1021.99 1022.19 1022.31 1022.43 1022.59 1022.71 1022.75 1022.83 1022.87 1022.99 1022.99 1023.07 1023.15 1023.19 1023.27 1023.31 1023.35 1023.39 1023.39 1023.35 1023.27 1023.27 1023.27 1023.27 1023.27 1023.23 1023.15 1022.99 1022.87 1022.71 1022.59 1022.39 1022.31 1022.27 1022.23 1022.11 1021.91
1015.39 1015.59 1015.87 1016.15 1016.35 1016.55 1016.71 1016.87 1016.99 1017.19 1017.39 1017.55 1017.71 1017.99 1018.27 1018.43 1018.67 1018.87 1019.07 1019.27 1019.51 1019.71 1019.91 1020.11 1020.23 1020.43 1020.59 1020.79 1020.99 1021.15 1021.31 1021.55 1021.71 1021.87 1022.03 1022.15 1022.27 1022.39 1022.47 1022.55 1022.59 1022.67 1022.71 1022.79 1022.87 1022.91 1022.95 1022.99 1023.07 1023.11 1023.11 1023.11 1022.99 1022.99 1022.99 1022.99 1022.99 1022.91 1022.83 1022.71 1022.55 1022.39 1022.23 1022.07 1021.99 1021.95 1021.87 1021.71 1021.55
1015.11 1015.31 1015.55 1015.79 1015.99 1016.15 1016.27 1016.39 1016.59 1016.75 1016.95 1017.15 1017.39 1017.63 1017.87 1018.07 1018.31 1018.55 1018.71 1018.87 1019.15 1019.43 1019.59 1019.75 1019.91 1020.15 1020.35 1020.51 1020.71 1020.87 1021.07 1021.27 1021.43 1021.59 1021.71 1021.87 1021.99 1022.11 1022.19 1022.27 1022.27 1022.35 1022.43 1022.51 1022.59 1022.63 1022.71 1022.71 1022.75 1022.83 1022.87 1022.87 1022.75 1022.71 1022.71 1022.71 1022.63 1022.59 1022.47 1022.31 1022.19 1022.07 1021.91 1021.79 1021.71 1021.59 1021.47 1021.35 1021.15
1014.79 1014.99 1015.19 1015.43 1015.55 1015.71 1015.83 1015.99 1016.15 1016.27 1016.47 1016.71 1016.95 1017.19 1017.43 1017.67 1017.91 1018.11 1018.27 1018.43 1018.71 1018.95 1019.19 1019.43 1019.59 1019.83 1019.99 1020.19 1020.35 1020.55 1020.71 1020.91 1021.07 1021.23 1021.39 1021.55 1021.67 1021.79 1021.87 1021.95 1021.99 1022.03 1022.15 1022.23 1022.27 1022.35 1022.39 1022.43 1022.43 1022.51 1022.59 1022.59 1022.51 1022.43 1022.39 1022.35 1022.27 1022.23 1022.11 1021.99 1021.83 1021.71 1021.55 1021.43 1021.35 1021.27 1021.15 1020.99 1020.75
1014.43 1014.67 1014.87 1015.03 1015.15 1015.27 1015.43 1015.55 1015.71 1015.87 1016.03 1016.27 1016.51 1016.75 1016.99 1017.23 1017.43 1017.67 1017.87 1018.03 1018.27 1018.47 1018.75 1019.03 1019.27 1019.51 1019.71 1019.87 1020.03 1020.15 1020.31 1020.51 1020.71 1020.87 1021.03 1021.23 1021.35 1021.47 1021.55 1021.63 1021.67 1021.75 1021.87 1021.91 1021.99 1022.03 1022.11 1022.15 1022.19 1022.23 1022.27 1022.27 1022.23 1022.15 1022.11 1022.03 1021.99 1021.87 1021.71 1021.59 1021.43 1021.31 1021.15 1021.07 1020.99 1020.87 1020.75 1020.63 1020.43
1014.11 1014.27 1014.43 1014.51 1014.67 1014.87 1015.03 1015.19 1015.35 1015.55 1015.71 1015.95 1016.15 1016.43 1016.63 1016.83 1017.03 1017.23 1017.43 1017.59 1017.83 1018.07 1018.35 1018.63 1018.91 1019.15 1019.35 1019.51 1019.71 1019.87 1019.99 1020.15 1020.35 1020.59 1020.75 1020.91 1021.07 1021.19 1021.27 1021.35 1021.43 1021.47 1021.55 1021.63 1021.71 1021.75 1021.83 1021.87 1021.87 1021.95 1021.99 1021.99 1021.95 1021.87 1021.79 1021.71 1021.63 1021.51 1021.35 1021.23 1021.07 1020.91 1020.75 1020.67 1020.59 1020.43 1020.31 1020.19 1020.07
1013.67 1013.79 1013.91 1014.07 1014.31 1014.55 1014.71 1014.87 1015.11 1015.31 1015.55 1015.71 1015.91 1016.11 1016.27 1016.47 1016.67 1016.87 1016.99 1017.15 1017.43 1017.71 1017.99 1018.27 1018.47 1018.71 1018.95 1019.19 1019.43 1019.55 1019.71 1019.87 1020.07 1020.27 1020.43 1020.59 1020.79 1020.87 1020.95 1021.03 1021.15 1021.19 1021.27 1021.35 1021.43 1021.51 1021.55 1021.55 1021.59 1021.63 1021.71 1021.71 1021.67 1021.55 1021.51 1021.43 1021.27 1021.15 1020.99 1020.87 1020.67 1020.47 1020.35 1020.27 1020.15 1020.03 1019.91 1019.79 1019.67
1013.19 1013.35 1013.55 1013.83 1014.07 1014.27 1014.47 1014.71 1014.95 1015.19 1015.39 1015.55 1015.67 1015.83 1015.99 1016.15 1016.31 1016.47 1016.63 1016.87 1017.15 1017.43 1017.67 1017.91 1018.11 1018.31 1018.59 1018.83 1019.03 1019.23 1019.43 1019.59 1019.79 1019.99 1020.15 1020.31 1020.43 1020.55 1020.67 1020.79 1020.87 1020.95 1020.99 1021.11 1021.15 1021.19 1021.27 1021.27 1021.31 1021.35 1021.43 1021.43 1021.35 1021.27 1021.15 1021.07 1020.91 1020.79 1020.63 1020.43 1020.27 1020.07 1019.95 1019.87 1019.71 1019.59 1019.47 1019.35 1019.23
1012.87 1013.15 1013.39 1013.63 1013.87 1014.11 1014.31 1014.55 1014.75 1014.99 1015.15 1015.27 1015.43 1015.59 1015.75 1015.91 1016.03 1016.23 1016.43 1016.71 1016.91 1017.15 1017.35 1017.55 1017.79 1017.99 1018.23 1018.47 1018.71 1018.95 1019.15 1019.35 1019.55 1019.71 1019.87 1020.03 1020.19 1020.31 1020.43 1020.51 1020.63 1020.67 1020.71 1020.75 1020.87 1020.95 1020.99 1020.99 1021.03 1021.07 1021.07 1021.07 1020.99 1020.91 1020.79 1020.71 1020.59 1020.43 1020.27 1020.07 1019.83 1019.63 1019.47 1019.35 1019.23 1019.15 1019.03 1018.95 1018.87
1012.71 1012.99 1013.23 1013.43 1013.67 1013.87 1014.07 1014.27 1014.51 1014.71 1014.87 1014.99 1015.15 1015.35 1015.51 1015.71 1015.87 1016.07 1016.31 1016.51 1016.67 1016.87 1017.07 1017.27 1017.51 1017.71 1017.99 1018.23 1018.47 1018.71 1018.87 1019.07 1019.27 1019.47 1019.63 1019.83 1019.99 1020.11 1020.19 1020.27 1020.31 1020.35 1020.39 1020.43 1020.51 1020.59 1020.67 1020.67 1020.67 1020.67 1020.71 1020.67 1020.59 1020.47 1020.39 1020.27 1020.19 1020.03 1019.87 1019.63 1019.35 1019.15 1018.95 1018.83 1018.75 1018.71 1018.71 1018.71 1018.63
1012.59 1012.83 1013.03 1013.23 1013.43 1013.67 1013.87 1014.03 1014.19 1014.35 1014.51 1014.67 1014.87 1015.11 1015.27 1015.47 1015.71 1015.91 1016.11 1016.27 1016.43 1016.59 1016.83 1017.03 1017.27 1017.55 1017.83 1018.03 1018.27 1018.43 1018.59 1018.75 1018.95 1019.15 1019.35 1019.55 1019.71 1019.83 1019.91 1019.99 1019.99 1020.03 1020.11 1020.15 1020.11 1020.03 1020.03 1020.03 1020.07 1020.07 1020.07 1020.03 1019.99 1019.91 1019.83 1019.71 1019.59 1019.47 1019.31 1019.11 1018.87 1018.67 1018.55 1018.47 1018.47 1018.47 1018.51 1018.47 1018.47
1012.43 1012.67 1012.87 1012.99 1013.19 1013.43 1013.59 1013.71 1013.87 1014.03 1014.19 1014.43 1014.67 1014.87 1015.07 1015.27 1015.47 1015.67 1015.87 1016.03 1016.19 1016.39 1016.59 1016.87 1017.11 1017.35 1017.59 1017.83 1018.03 1018.23 1018.35 1018.47 1018.63 1018.83 1019.03 1019.27 1019.43 1019.55 1019.59 1019.67 1019.67 1019.71 1019.75 1019.75 1019.67 1019.55 1019.51 1019.43 1019.43 1019.39 1019.39 1019.39 1019.31 1019.27 1019.19 1019.11 1018.99 1018.95 1018.83 1018.63 1018.43 1018.31 1018.27 1018.27 1018.27 1018.27 1018.27 1018.23 1018.23
1012.27 1012.51 1012.67 1012.83 1013.03 1013.19 1013.31 1013.43 1013.63 1013.87 1014.03 1014.27 1014.47 1014.71 1014.87 1015.11 1015.31 1015.47 1015.67 1015.83 1015.99 1016.23 1016.43 1016.71 1016.87 1017.07 1017.31 1017.55 1017.79 1017.95 1018.03 1018.15 1018.27 1018.51 1018.75 1018.95 1019.15 1019.27 1019.31 1019.31 1019.31 1019.39 1019.43 1019.35 1019.27 1019.19 1019.15 1019.03 1018.95 1018.87 1018.87 1018.87 1018.83 1018.75 1018.71 1018.63 1018.59 1018.55 1018.43 1018.27 1018.15 1018.15 1018.15 1018.15 1018.11 1018.07 1018.03 1017.99 1017.95
1012.07 1012.23 1012.43 1012.67 1012.83 1012.95 1013.07 1013.27 1013.47 1013.67 1013.87 1014.03 1014.23 1014.43 1014.67 1014.95 1015.15 1015.31 1015.43 1015.63 1015.83 1016.07 1016.27 1016.51 1016.67 1016.83 1017.03 1017.27 1017.47 1017.63 1017.71 1017.83 1017.99 1018.23 1018.43 1018.63 1018.79 1018.87 1018.91 1018.95 1018.99 1018.99 1018.99 1018.95 1018.87 1018.87 1018.75 1018.67 1018.59 1018.51 1018.43 1018.43 1018.39 1018.35 1018.31 1018.27 1018.27 1018.15 1018.07 1017.99 1017.99 1017.95 1017.95 1017.95 1017.95 1017.95 1017.91 1017.87 1017.83
1011.75 1011.99 1012.19 1012.39 1012.51 1012.63 1012.83 1013.07 1013.27 1013.39 1013.55 1013.83 1014.07 1014.31 1014.59 1014.79 1014.99 1015.11 1015.27 1015.43 1015.67 1015.87 1016.03 1016.23 1016.43 1016.59 1016.79 1016.95 1017.15 1017.27 1017.43 1017.55 1017.71 1017.91 1018.15 1018.31 1018.47 1018.55 1018.59 1018.59 1018.63 1018.63 1018.59 1018.55 1018.51 1018.43 1018.39 1018.27 1018.23 1018.15 1018.07 1017.99 1017.99 1017.99 1017.99 1017.91 1017.87 1017.83 1017.79 1017.75 1017.75 1017.71 1017.75 1017.75 1017.75 1017.79 1017.79 1017.75 1017.71
1011.47 1011.71 1011.87 1011.99 1012.15 1012.31 1012.51 1012.71 1012.87 1013.11 1013.39 1013.67 1013.95 1014.19 1014.43 1014.59 1014.75 1014.95 1015.11 1015.27 1015.43 1015.55 1015.71 1015.91 1016.19 1016.35 1016.47 1016.59 1016.83 1017.03 1017.19 1017.31 1017.47 1017.63 1017.83 1017.99 1018.15 1018.19 1018.23 1018.27 1018.31 1018.31 1018.27 1018.23 1018.15 1018.11 1018.03 1017.99 1017.91 1017.87 1017.75 1017.67 1017.67 1017.67 1017.59 1017.55 1017.55 1017.55 1017.51 1017.51 1017.51 1017.55 1017.55 1017.55 1017.63 1017.63 1017.59 1017.55 1017.51
1011.19 1011.35 1011.51 1011.67 1011.87 1011.99 1012.19 1012.43 1012.71 1012.99 1013.27 1013.55 1013.79 1014.03 1014.23 1014.43 1014.59 1014.71 1014.87 1014.99 1015.15 1015.27 1015.51 1015.75 1015.99 1016.15 1016.23 1016.35 1016.59 1016.75 1016.91 1017.07 1017.23 1017.39 1017.51 1017.63 1017.71 1017.79 1017.87 1017.95 1017.99 1017.99 1017.99 1017.95 1017.87 1017.79 1017.71 1017.71 1017.59 1017.55 1017.47 1017.39 1017.35 1017.31 1017.27 1017.27 1017.23 1017.27 1017.27 1017.27 1017.27 1017.31 1017.35 1017.43 1017.43 1017.43 1017.39 1017.35 1017.31
1010.91 1011.07 1011.23 1011.43 1011.55 1011.75 1011.99 1012.27 1012.59 1012.87 1013.11 1013.39 1013.59 1013.83 1013.99 1014.19 1014.35 1014.51 1014.71 1014.87 1015.03 1015.27 1015.47 1015.67 1015.79 1015.95 1016.07 1016.23 1016.39 1016.51 1016.67 1016.79 1016.87 1016.99 1017.11 1017.27 1017.39 1017.47 1017.55 1017.63 1017.71 1017.71 1017.71 1017.59 1017.55 1017.51 1017.43 1017.35 1017.31 1017.27 1017.15 1017.07 1017.03 1016.99 1016.99 1016.95 1016.99 1016.99 1017.03 1017.07 1017.03 1017.07 1017.15 1017.19 1017.19 1017.19 1017.15 1017.15 1017.11
1010.71 1010.87 1010.99 1011.19 1011.39 1011.59 1011.91 1012.23 1012.47 1012.71 1012.95 1013.19 1013.43 1013.63 1013.83 1014.03 1014.23 1014.43 1014.67 1014.83 1014.99 1015.19 1015.35 1015.47 1015.59 1015.71 1015.83 1015.91 1016.07 1016.19 1016.31 1016.43 1016.51 1016.63 1016.71 1016.91 1017.07 1017.23 1017.27 1017.31 1017.35 1017.39 1017.35 1017.31 1017.27 1017.19 1017.11 1017.07 1016.99 1016.95 1016.87 1016.75 1016.71 1016.71 1016.71 1016.71 1016.79 1016.83 1016.87 1016.87 1016.87 1016.87 1016.95 1016.99 1016.99 1016.99 1016.95 1016.87 1016.87
1010.55 1010.71 1010.87 1011.07 1011.27 1011.55 1011.87 1012.11 1012.35 1012.59 1012.83 1013.03 1013.27 1013.43 1013.67 1013.91 1014.15 1014.39 1014.59 1014.75 1014.91 1015.03 1015.15 1015.23 1015.27 1015.31 1015.35 1015.43 1015.55 1015.75 1015.91 1015.99 1016.15 1016.31 1016.47 1016.63 1016.79 1016.95 1016.99 1016.99 1016.99 1016.99 1016.99 1016.95 1016.91 1016.87 1016.79 1016.71 1016.71 1016.63 1016.55 1016.47 1016.47 1016.47 1016.51 1016.55 1016.59 1016.67 1016.71 1016.71 1016.71 1016.71 1016.79 1016.79 1016.79 1016.75 1016.71 1016.67 1016.59
1010.39 1010.59 1010.75 1010.99 1011.19 1011.47 1011.71 1011.99 1012.23 1012.43 1012.67 1012.87 1013.07 1013.27 1013.51 1013.75 1013.99 1014.15 1014.35 1014.51 1014.63 1014.79 1014.87 1014.91 1014.95 1014.99 1015.03 1015.11 1015.19 1015.35 1015.51 1015.71 1015.87 1016.03 1016.23 1016.39 1016.59 1016.67 1016.71 1016.63 1016.63 1016.63 1016.63 1016.63 1016.59 1016.55 1016.51 1016.43 1016.43 1016.39 1016.31 1016.27 1016.27 1016.27 1016.31 1016.39 1016.43 1016.47 1016.51 1016.55 1016.59 1016.59 1016.59 1016.59 1016.59 1016.59 1016.51 1016.47 1016.39
1010.19 1010.43 1010.63 1010.87 1011.11 1011.35 1011.59 1011.87 1012.07 1012.27 1012.51 1012.67 1012.87 1013.03 1013.27 1013.43 1013.63 1013.83 1013.99 1014.11 1014.27 1014.39 1014.47 1014.59 1014.63 1014.75 1014.83 1014.91 1014.99 1015.03 1015.15 1015.31 1015.51 1015.71 1015.95 1016.15 1016.27 1016.35 1016.35 1016.27 1016.27 1016.31 1016.31 1016.31 1016.27 1016.27 1016.23 1016.19 1016.15 1016.15 1016.11 1016.11 1016.07 1016.11 1016.15 1016.15 1016.19 1016.23 1016.27 1016.39 1016.39 1016.35 1016.35 1016.35 1016.31 1016.27 1016.27 1016.23 1016.15
1009.95 1010.19 1010.43 1010.71 1010.95 1011.15 1011.39 1011.63 1011.87 1012.03 1012.23 1012.35 1012.47 1012.63 1012.79 1012.95 1013.15 1013.27 1013.43 1013.59 1013.75 1013.87 1013.99 1014.11 1014.23 1014.35 1014.43 1014.51 1014.59 1014.67 1014.75 1014.95 1015.19 1015.43 1015.63 1015.75 1015.87 1015.99 1015.99 1015.95 1015.99 1016.03 1016.07 1016.03 1015.99 1015.99 1015.99 1015.91 1015.91 1015.87 1015.87 1015.91 1015.87 1015.91 1015.95 1015.95 1015.99 1016.03 1016.11 1016.15 1016.15 1016.15 1016.07 1016.03 1016.03 1016.03 1015.99 1015.99 1015.91
1009.71 1009.95 1010.19 1010.43 1010.67 1010.87 1011.07 1011.27 1011.47 1011.59 1011.75 1011.87 1011.99 1012.07 1012.19 1012.35 1012.51 1012.67 1012.87 1012.99 1013.15 1013.31 1013.47 1013.63 1013.79 1013.87 1013.95 1013.99 1014.15 1014.23 1014.39 1014.59 1014.87 1015.11 1015.27 1015.39 1015.47 1015.55 1015.59 1015.63 1015.67 1015.71 1015.83 1015.83 1015.75 1015.71 1015.71 1015.71 1015.67 1015.63 1015.67 1015.71 1015.71 1015.71 1015.71 1015.75 1015.79 1015.83 1015.87 1015.95 1015.95 1015.91 1015.87 1015.79 1015.79 1015.79 1015.75 1015.71 1015.55
1009.39 1009.63 1009.87 1010.07 1010.23 1010.43 1010.59 1010.83 1010.95 1011.07 1011.19 1011.31 1011.43 1011.59 1011.71 1011.87 1011.99 1012.11 1012.27 1012.43 1012.59 1012.83 1013.03 1013.19 1013.31 1013.43 1013.55 1013.67 1013.83 1013.99 1014.15 1014.31 1014.55 1014.71 1014.87 1014.99 1015.11 1015.15 1015.23 1015.27 1015.31 1015.43 1015.51 1015.55 1015.55 1015.47 1015.47 1015.47 1015.43 1015.39 1015.39 1015.43 1015.43 1015.47 1015.51 1015.55 1015.55 1015.59 1015.67 1015.71 1015.71 1015.71 1015.63 1015.59 1015.59 1015.55 1015.55 1015.43 1015.23
1008.95 1009.15 1009.35 1009.51 1009.63 1009.79 1009.99 1010.19 1010.31 1010.47 1010.67 1010.87 1011.07 1011.23 1011.35 1011.47 1011.59 1011.75 1011.95 1012.11 1012.27 1012.43 1012.63 1012.79 1012.91 1013.07 1013.27 1013.43 1013.55 1013.75 1013.91 1014.11 1014.27 1014.43 1014.51 1014.63 1014.71 1014.79 1014.83 1014.91 1014.95 1015.07 1015.15 1015.23 1015.23 1015.23 1015.19 1015.19 1015.15 1015.15 1015.15 1015.23 1015.23 1015.27 1015.27 1015.35 1015.35 1015.39 1015.43 1015.43 1015.51 1015.51 1015.43 1015.39 1015.43 1015.39 1015.35 1015.31 1015.15
1008.43 1008.63 1008.75 1008.87 1008.99 1009.15 1009.35 1009.55 1009.75 1009.99 1010.19 1010.43 1010.63 1010.79 1010.95 1011.15 1011.35 1011.55 1011.75 1011.87 1011.99 1012.19 1012.35 1012.51 1012.67 1012.87 1012.99 1013.15 1013.27 1013.43 1013.63 1013.83 1013.99 1014.11 1014.23 1014.31 1014.43 1014.47 1014.47 1014.55 1014.59 1014.71 1014.87 1014.91 1014.95 1014.99 1014.99 1014.95 1014.91 1014.91 1014.91 1014.99 1015.03 1015.03 1015.07 1015.07 1015.11 1015.11 1015.15 1015.15 1015.23 1015.27 1015.27 1015.23 1015.23 1015.19 1015.15 1015.15 1015.03
Wind_Speed
11 10 9 9 9 8 7 7 7 7 7 6 7 7 7 7 7 7 6 6 6 6 6 5 5 5 5 7 8 8 8 8 8 8 8 8 7 7 7 7 7 7 7 7 6 6 5 5 4 4 4 4 5 5 4 4 5 5 5 6 6 6 6 7 8 8 8 9 8
13 12 11 11 10 8 7 7 7 7 7 6 7 7 7 7 7 7 6 6 6 6 5 5 5 6 6 8 8 8 8 8 8 8 8 8 8 7 7 7 7 7 7 7 6 6 5 5 4 4 4 4 4 5 5 5 5 5 6 7 6 5 5 7 7 8 8 8 9
13 12 11 11 10 9 8 7 8 8 8 7 6 6 7 7 6 6 6 6 6 5 5 5 5 6 7 8 8 7 7 8 8 8 7 7 7 7 7 7 7 7 7 7 6 6 5 5 5 5 5 4 4 5 5 4 4 5 6 6 5 5 5 6 6 7 7 7 8
14 13 12 12 13 12 11 9 10 10 9 7 6 6 6 6 6 6 5 5 5 5 5 5 6 6 7 8 8 7 7 8 8 8 7 7 7 8 8 8 8 8 7 7 7 7 6 6 4 4 4 5 5 5 5 5 4 5 5 5 4 4 5 6 6 6 6 7 8
15 14 14 14 15 14 12 10 11 10 9 7 6 6 6 6 5 5 5 5 6 6 6 6 6 6 7 7 8 8 8 8 9 8 7 8 8 8 8 8 8 8 7 7 7 7 6 6 4 4 4 4 5 5 5 5 5 5 5 4 4 4 5 5 6 6 7 7 7
16 15 15 14 15 13 11 10 11 10 8 7 8 8 7 6 6 6 7 7 7 7 7 8 7 7 7 7 8 8 8 8 8 8 7 8 8 8 8 8 8 8 7 7 7 7 6 5 4 4 4 4 5 6 6 6 6 6 5 5 5 4 5 5 6 6 7 8 9
16 16 15 14 14 13 11 10 9 9 8 8 10 11 10 9 9 9 9 8 7 7 7 8 8 8 8 8 8 8 8 7 7 7 8 8 8 8 8 8 8 7 7 7 7 6 6 5 4 4 5 5 5 5 6 6 6 6 6 6 5 5 4 5 5 6 8 10 11
15 15 15 15 14 14 13 11 10 9 9 9 11 12 13 12 11 11 10 8 7 7 7 8 8 9 9 9 8 8 8 8 8 8 8 8 8 8 8 8 7 7 7 7 6 6 6 5 4 4 5 5 5 5 5 6 6 6 7 7 6 5 5 5 5 6 8 11 12
13 14 14 14 13 13 13 12 11 11 11 11 12 13 13 12 12 11 10 8 8 8 8 7 8 9 9 9 9 9 9 8 8 8 8 8 8 8 8 7 7 7 7 6 7 7 6 5 5 5 5 5 5 5 6 6 6 7 7 7 7 6 6 6 6 7 9 10 12
13 14 13 13 13 13 12 12 11 12 12 12 12 12 12 13 12 11 10 9 8 8 8 8 9 9 10 10 10 9 9 8 8 8 8 8 8 8 8 7 7 7 7 6 6 6 6 5 5 5 5 5 6 7 7 7 7 8 8 7 7 7 8 8 8 9 10 10 12
14 14 13 13 13 13 12 11 11 11 11 11 12 12 12 13 12 11 10 8 8 9 10 9 10 10 10 10 10 9 9 8 8 8 8 8 9 9 8 8 8 7 7 7 6 5 5 5 5 6 7 6 7 7 7 7 8 9 9 8 8 9 10 10 10 9 9 10 12
14 13 13 12 12 12 12 12 11 11 11 12 12 11 11 11 12 11 10 9 10 10 10 10 10 11 10 9 9 9 9 8 8 8 8 8 8 8 8 8 8 8 8 7 6 5 5 5 6 7 8 8 7 7 7 8 8 9 10 10 9 10 11 12 11 10 9 9 11
13 13 12 12 12 12 12 12 11 11 11 12 12 11 11 11 11 11 11 11 11 10 9 10 10 10 10 9 9 9 8 8 8 8 8 8 8 8 8 8 8 8 8 7 6 5 5 6 7 8 8 9 8 7 7 8 8 9 10 10 10 10 11 12 12 11 10 10 12
13 12 12 12 12 12 12 12 11 11 11 13 12 11 11 10 10 11 11 11 11 10 9 9 10 10 10 10 9 9 9 9 9 9 8 8 8 8 8 8 8 8 7 7 6 6 6 7 8 8 9 9 9 9 8 8 8 9 10 10 11 11 12 13 12 11 11 11 13
13 13 12 12 13 12 12 13 11 11 11 13 12 11 10 9 10 11 11 11 11 10 9 9 9 9 10 10 10 10 9 9 9 9 9 9 8 8 8 8 8 8 7 7 6 7 7 8 8 8 9 9 10 9 9 8 9 9 10 10 11 12 12 13 12 12 11 12 13
13 13 13 13 13 13 13 13 11 10 11 12 12 11 10 9 10 10 11 11 10 9 9 9 9 9 9 10 10 10 9 9 9 9 9 9 9 9 8 8 8 8 8 7 7 7 7 8 8 8 9 10 10 10 9 9 9 10 11 11 11 12 12 13 13 13 12 13 13
14 14 13 14 14 15 14 13 11 11 11 12 12 12 11 10 9 10 12 12 10 10 10 11 10 9 9 9 10 9 9 9 9 9 9 9 9 9 9 9 9 8 8 8 8 8 8 7 8 8 8 9 10 10 10 10 10 11 11 12 12 12 13 13 13 13 13 13 14
14 14 14 15 16 16 16 15 13 13 13 13 13 12 12 11 11 11 12 13 12 12 12 12 10 9 9 10 9 9 9 9 9 9 9 9 9 9 9 9 9 8 8 8 8 8 8 8 8 8 8 9 9 9 10 10 10 11 12 12 12 12 13 13 13 13 13 14 14
15 15 15 16 16 17 17 16 15 14 14 13 13 12 12 12 12 12 12 13 13 13 13 12 11 10 10 11 10 9 9 9 9 9 9 9 9 9 9 9 8 8 8 8 8 8 8 8 8 8 8 8 9 9 10 10 11 11 12 12 12 12 13 13 13 13 13 14 14
15 16 16 17 17 17 17 16 16 15 13 12 13 13 13 13 13 13 13 13 14 14 13 13 12 11 11 11 10 10 10 9 9 9 9 9 9 9 9 9 8 8 8 7 7 8 8 8 8 8 8 9 9 10 10 11 11 12 12 12 12 12 13 13 13 14 14 14 14
16 16 17 16 16 16 16 15 14 14 13 12 13 13 14 14 14 14 15 14 14 14 13 13 13 13 12 12 11 11 10 8 9 9 9 9 9 9 9 8 8 7 7 7 7 7 8 8 8 8 8 9 10 10 11 11 11 12 12 11 11 12 13 13 13 14 14 14 13
16 16 15 15 15 15 14 14 13 13 12 12 13 13 14 14 14 14 14 13 13 13 13 14 13 13 13 12 12 11 10 8 8 8 9 9 9 9 9 8 8 7 7 7 7 7 8 8 8 8 9 9 10 11 11 11 12 12 12 12 13 13 13 13 14 14 13 13 13
15 14 13 13 13 14 14 13 12 12 13 13 13 13 13 14 14 13 13 12 12 13 13 13 12 12 12 12 11 11 10 9 8 8 8 8 8 8 8 7 7 8 8 7 7 7 7 7 8 8 9 9 10 11 12 12 12 12 12 13 13 14 13 13 13 13 12 11 11
13 12 12 11 12 13 13 13 13 13 13 13 13 13 13 13 13 13 12 12 13 13 13 11 11 11 11 11 10 10 10 10 9 9 9 8 8 8 8 7 7 7 7 6 7 8 8 7 7 8 9 9 10 11 11 12 12 12 13 14 14 13 13 12 11 10 10 10 9
12 12 11 11 12 13 13 13 14 14 14 14 13 13 13 13 13 12 12 13 13 13 12 11 10 10 10 10 10 10 10 10 10 10 9 9 8 8 8 7 7 7 6 7 10 13 14 12 10 9 8 9 10 10 11 12 12 13 13 13 13 12 11 9 8 8 8 8 8
11 12 12 12 12 13 13 14 14 14 14 14 13 13 13 13 12 12 13 13 13 13 12 11 10 10 10 9 10 10 10 10 10 10 9 9 9 9 8 7 7 6 6 8 13 16 17 17 16 14 11 9 9 9 10 10 11 11 12 13 12 11 9 7 7 7 7 7 7
11 12 12 12 12 13 14 14 14 14 14 13 13 13 13 12 11 12 13 13 12 12 11 10 10 10 11 9 10 10 10 9 9 9 9 9 9 9 9 8 7 6 7 10 14 16 18 18 19 18 15 11 9 9 9 8 9 10 11 11 10 8 7 7 7 7 7 7 7
12 12 12 12 13 14 14 13 13 14 14 14 13 13 12 12 12 12 12 12 12 11 10 9 9 9 9 8 10 11 11 10 9 9 9 9 9 10 9 8 7 7 9 13 15 17 18 18 19 19 18 14 10 8 8 8 9 9 9 8 7 7 6 6 6 7 7 7 7
13 13 13 13 14 14 14 14 14 14 14 13 13 12 12 12 12 12 12 12 12 11 10 9 8 8 7 8 10 10 10 10 9 8 8 9 9 10 10 9 8 9 11 15 16 17 18 18 19 19 19 17 11 8 7 7 8 8 7 6 5 5 6 6 6 6 6 6 6
13 13 14 15 15 14 14 14 14 14 13 11 12 12 12 12 12 13 12 12 13 12 10 9 8 9 9 10 9 9 9 9 8 8 9 9 10 10 10 10 9 9 12 16 17 18 18 18 19 19 19 19 14 10 7 7 7 6 6 5 5 6 6 6 6 6 6 6 6
13 14 14 15 15 14 14 14 13 12 11 10 11 12 12 12 13 13 13 12 12 11 10 9 10 10 11 10 9 9 9 9 8 9 9 10 11 11 11 10 9 10 12 15 17 17 18 18 18 18 19 19 15 11 8 7 6 5 5 5 6 6 6 6 6 7 7 7 6
13 14 14 14 14 14 13 12 11 11 11 11 12 12 12 13 12 12 11 11 11 10 10 10 11 11 10 10 9 9 9 9 9 10 10 11 11 11 10 10 9 10 12 15 17 17 18 18 18 18 18 19 15 11 8 7 6 5 5 6 6 7 7 6 6 7 7 7 7
13 13 13 14 13 12 11 11 11 11 11 11 12 12 12 12 11 10 10 9 9 10 10 11 12 12 12 11 11 11 10 10 11 11 11 11 11 10 10 10 9 10 13 15 16 17 17 18 18 18 18 18 14 10 7 6 4 4 4 5 6 7 7 7 7 7 7 7 7
13 13 13 13 12 11 10 10 10 10 11 11 11 11 11 11 10 10 9 9 9 9 10 11 12 12 12 12 12 12 11 11 11 11 11 10 10 10 10 9 8 10 13 15 16 17 17 17 17 18 18 17 12 8 6 4 4 4 5 5 6 6 6 7 7 7 8 8 7
12 12 12 12 11 10 10 10 10 10 11 11 11 11 11 11 10 10 10 10 10 9 10 10 11 11 11 11 11 12 12 11 10 10 10 10 9 10 11 10 9 10 13 15 16 16 17 17 17 17 17 15 10 7 5 5 4 5 5 6 6 6 7 7 7 7 7 8 7
12 12 12 11 10 10 10 10 10 11 11 12 12 12 12 11 11 11 11 12 12 11 11 12 11 11 11 10 10 11 12 11 11 10 10 10 10 11 11 11 10 11 14 15 16 16 17 17 17 17 16 12 7 5 5 5 4 5 5 6 7 7 8 7 7 7 7 7 7
12 12 12 11 11 11 11 11 11 12 13 13 13 13 13 13 13 12 12 13 13 13 13 13 12 13 13 12 11 12 12 11 11 10 10 11 11 11 11 11 10 11 13 15 15 16 16 16 16 16 14 10 6 5 5 4 4 5 5 6 7 7 8 7 7 7 7 7 8
12 12 12 12 12 12 12 12 13 14 15 15 15 14 14 14 14 13 14 14 14 14 14 13 14 14 14 14 12 12 11 11 11 11 11 12 12 12 11 11 10 10 11 13 15 16 16 16 16 15 13 9 6 5 5 4 4 5 5 6 6 7 7 6 5 6 7 8 10
12 13 13 13 14 13 14 14 15 16 16 16 15 15 15 14 13 14 14 15 14 14 14 14 14 14 14 13 12 11 11 11 11 12 12 12 12 12 12 11 10 9 10 13 14 15 16 16 16 15 14 10 7 5 4 4 4 5 5 5 6 6 6 6 5 5 6 9 13
13 14 15 15 15 15 16 16 16 16 16 15 15 15 15 15 14 13 14 13 13 13 13 13 14 13 13 13 11 11 10 10 11 12 12 12 13 14 14 12 10 9 10 12 14 15 15 15 15 15 14 9 6 5 4 4 4 5 5 5 5 5 5 5 5 5 6 7 10
14 15 16 17 17 17 17 17 17 16 15 15 16 15 14 14 13 13 13 12 12 12 12 11 12 12 12 12 11 11 11 11 11 12 12 13 13 14 14 12 10 9 9 11 13 14 15 15 15 15 13 9 6 5 5 4 5 6 6 6 5 5 5 5 5 5 5 6 6
Wind_Direction
197 196 196 195 193 194 196 200 200 198 193 189 190 191 191 190 194 195 195 192 196 198 197 194 192 188 182 179 182 187 192 195 198 203 209 211 212 214 216 220 220 222 225 229 229 231 231 229 229 235 243 245 246 246 245 243 241 241 242 244 249 251 252 253 255 253 251 248 251
199 197 197 197 197 195 194 197 200 199 196 192 191 190 190 189 193 193 193 194 196 194 190 188 184 181 180 182 184 186 190 194 198 204 210 214 215 215 217 220 221 222 223 226 226 228 230 227 226 233 242 245 246 247 247 243 238 240 244 244 248 252 254 255 255 253 251 250 250
198 197 196 198 197 194 193 195 198 197 195 193 190 188 188 191 192 192 192 194 190 186 182 184 182 180 180 182 185 187 190 194 197 203 209 215 216 217 218 220 222 224 225 225 224 226 228 224 226 234 243 247 246 249 251 250 241 242 245 246 248 250 253 256 256 255 253 254 253
197 196 196 199 198 197 195 194 194 194 193 189 183 183 186 191 192 190 187 181 179 182 186 186 181 181 181 182 186 190 193 196 197 202 208 215 217 218 218 219 221 223 225 224 224 226 227 222 227 236 244 247 249 252 254 255 249 249 250 250 250 250 251 256 256 256 256 258 256
199 198 198 200 200 199 197 194 192 191 189 182 178 181 186 189 189 185 180 178 187 191 190 182 179 180 182 183 186 190 195 200 203 205 209 213 217 218 218 217 219 222 223 223 223 224 225 220 228 237 242 244 247 249 251 250 249 250 252 254 252 249 249 253 255 255 256 257 257
199 200 200 201 200 200 199 196 191 188 184 176 177 181 186 188 187 187 188 191 193 189 184 179 181 182 183 183 187 190 195 200 205 207 208 212 216 217 217 218 219 220 222 222 223 224 222 217 229 238 241 241 245 246 245 242 245 248 251 254 251 247 246 248 252 254 256 257 258
199 199 200 200 199 199 198 195 189 183 178 176 181 185 188 188 188 190 191 192 186 181 181 184 186 186 185 184 188 192 196 200 205 207 209 213 216 216 217 218 219 220 221 223 224 223 220 213 226 239 246 248 251 247 241 235 239 245 250 253 251 248 245 245 250 254 257 258 259
199 199 199 199 198 198 197 193 185 180 179 183 188 190 190 188 188 188 188 186 184 183 184 187 187 186 185 185 190 193 196 199 204 207 210 214 217 218 219 218 219 221 222 222 222 222 220 215 225 235 243 247 253 252 246 237 238 243 250 254 256 254 250 248 250 253 256 259 260
199 199 199 198 197 197 195 192 186 184 185 190 192 192 190 187 186 186 186 188 188 186 185 187 186 185 185 188 191 194 196 198 202 206 210 212 215 218 220 219 220 223 224 222 221 220 219 220 228 234 238 242 248 251 250 243 242 246 252 257 259 258 255 251 250 251 254 257 260
198 197 196 196 197 196 194 191 189 188 190 193 193 192 190 189 188 187 188 190 186 184 185 188 184 184 187 192 194 195 196 197 200 204 208 211 214 217 218 219 219 222 224 222 219 216 216 220 230 236 239 241 246 250 252 250 249 251 254 258 260 261 260 257 253 253 254 257 259
198 195 193 195 194 193 191 190 192 192 193 195 193 192 191 192 191 190 189 186 182 186 189 188 183 184 189 194 196 197 197 197 199 202 206 212 215 216 217 217 217 219 222 223 218 215 215 222 232 238 241 243 244 248 251 250 250 252 254 258 260 262 263 262 258 256 256 257 259
199 195 193 193 190 188 188 190 193 195 196 197 195 193 192 194 192 189 186 183 186 190 191 187 185 187 191 195 196 197 197 197 199 202 206 211 214 216 217 217 217 219 222 224 220 218 220 227 234 240 244 246 246 246 248 248 248 251 254 258 259 261 262 264 261 259 257 257 259
198 194 192 191 187 186 188 193 194 196 197 199 196 195 194 196 192 187 184 185 190 192 190 187 187 189 192 195 194 194 195 196 198 201 206 210 213 215 216 218 218 219 222 224 221 221 224 229 234 240 244 248 248 247 246 245 247 251 255 259 260 261 262 264 263 262 260 259 261
196 194 191 188 186 187 190 194 196 197 198 200 198 196 194 195 191 187 186 189 192 192 189 186 190 193 194 194 192 192 193 194 197 201 206 211 212 213 215 218 217 218 221 225 222 221 224 230 234 239 243 248 250 249 248 246 247 250 254 258 260 261 262 264 264 264 263 261 262
197 195 191 187 186 189 192 195 197 198 198 200 199 196 193 192 191 189 189 191 193 191 188 186 192 195 195 193 192 191 192 193 195 200 206 211 213 214 215 218 217 218 221 225 225 223 224 229 233 238 243 248 251 252 251 248 248 250 252 254 257 259 262 264 265 264 263 262 263
198 195 192 188 189 192 194 196 197 197 198 200 197 194 192 190 189 189 190 191 191 190 189 190 192 192 192 192 191 191 191 194 196 200 205 211 213 215 216 218 219 219 221 224 227 228 228 228 232 236 241 246 251 253 254 252 252 252 252 253 255 257 260 262 263 263 262 262 263
199 196 193 191 193 195 197 197 197 197 197 198 195 193 191 189 187 189 190 191 189 190 192 194 191 189 188 191 191 191 191 194 198 202 206 210 213 215 217 218 219 220 220 223 228 231 233 232 234 235 239 243 249 252 254 255 255 255 254 254 254 255 257 259 261 261 262 262 263
200 198 195 195 197 198 199 199 199 198 197 195 193 191 190 187 186 188 190 190 189 190 192 193 191 188 187 189 190 190 192 195 199 203 207 210 213 215 218 220 220 219 219 221 227 231 235 237 237 238 240 243 247 251 253 255 256 256 256 255 254 254 255 257 258 258 259 261 262
201 199 198 199 200 201 201 200 200 199 197 194 192 190 189 187 186 187 189 190 189 190 190 190 189 189 189 189 190 192 193 195 199 203 207 209 212 215 218 220 220 220 220 222 227 232 236 239 241 242 243 246 249 252 254 255 256 257 256 256 255 254 255 255 256 256 257 258 259
202 201 201 201 202 202 202 202 201 200 198 194 191 190 189 188 187 187 188 190 190 189 188 188 188 190 191 190 190 193 195 195 197 201 205 208 212 215 218 219 221 221 221 223 228 233 237 241 242 243 245 248 251 254 256 257 257 257 257 256 255 254 254 254 254 255 255 255 257
204 204 203 203 202 202 203 203 202 200 198 195 192 191 190 188 188 189 190 189 187 186 187 188 189 190 190 190 191 193 195 195 196 200 204 207 212 215 218 218 220 221 223 223 228 233 237 241 242 244 245 248 251 253 255 257 258 258 257 256 255 254 253 253 254 254 254 254 254
206 205 204 203 203 203 203 202 201 200 198 197 194 192 190 189 190 191 190 187 184 184 187 190 191 190 190 189 190 191 193 195 196 199 203 207 212 215 217 217 218 221 224 225 228 232 237 241 242 243 245 248 251 252 254 255 257 258 259 258 257 255 254 252 252 252 252 252 252
206 205 203 202 202 202 202 201 200 199 199 198 196 193 192 191 191 190 187 184 184 186 188 191 191 191 190 189 188 188 189 193 196 200 203 207 212 215 217 216 218 220 224 226 227 231 236 242 243 243 243 245 248 250 252 253 254 256 258 258 258 256 253 250 248 248 248 249 250
205 203 201 200 200 200 200 199 198 199 199 199 196 194 193 192 190 187 185 185 186 187 189 190 190 189 188 186 185 186 187 191 196 200 204 207 211 214 216 217 219 222 224 225 226 229 232 236 238 238 237 237 240 243 246 247 249 251 253 256 257 256 253 248 244 243 245 247 250
203 201 200 199 198 198 199 198 199 199 200 199 196 194 193 191 188 186 185 186 188 188 188 188 187 185 184 184 186 187 188 191 195 199 204 208 212 214 216 219 222 222 223 227 235 238 240 240 239 236 232 231 234 238 240 242 243 246 250 254 258 258 255 248 244 242 243 246 247
202 201 201 199 198 198 199 200 200 200 200 198 195 194 193 191 188 186 186 187 189 189 188 186 184 183 182 183 186 188 191 193 195 198 203 208 213 216 218 221 222 222 224 230 238 243 247 249 249 248 245 239 239 240 242 243 245 249 253 257 260 259 256 250 249 248 248 249 247
202 202 202 200 199 200 202 202 201 200 199 197 195 194 193 190 188 187 187 188 188 187 186 184 184 184 184 184 187 190 193 195 195 198 202 208 214 218 220 223 222 220 224 231 240 245 250 253 255 256 255 253 250 249 249 251 253 256 259 260 258 253 247 243 247 251 254 257 256
203 202 202 200 201 203 203 202 201 201 200 198 196 194 192 189 188 188 189 188 186 184 184 184 185 184 184 184 190 193 195 194 194 197 202 209 215 220 222 224 223 223 228 234 241 247 251 254 257 259 260 259 257 255 254 255 257 258 258 258 252 244 237 236 240 245 251 258 264
202 202 201 201 204 204 203 201 202 201 200 197 195 193 190 189 189 189 189 187 184 184 184 185 184 184 186 189 193 194 194 193 192 195 200 209 217 221 224 225 225 229 234 238 244 249 253 256 258 260 262 263 262 259 255 254 254 254 253 250 242 235 232 232 236 239 244 252 260
202 201 202 203 204 204 203 202 201 200 198 195 193 191 190 190 191 191 190 188 187 187 186 181 181 185 190 192 191 192 192 193 192 194 200 208 216 221 224 225 225 229 235 240 245 250 254 257 259 262 264 266 265 263 257 252 250 249 247 243 236 231 229 230 233 236 239 244 254
202 202 203 204 205 205 204 202 199 197 194 192 191 191 191 192 193 193 192 191 190 188 185 179 182 187 190 190 189 190 192 192 193 196 202 209 217 222 224 224 223 228 234 239 245 250 254 257 260 262 264 266 266 263 258 253 247 241 237 234 231 229 228 230 231 234 237 241 248
203 203 204 205 206 206 203 199 196 193 191 190 191 192 193 194 195 194 193 192 189 186 183 181 185 188 189 188 189 191 193 195 197 201 204 209 216 221 224 224 223 227 233 239 245 249 253 256 259 262 264 266 266 265 261 255 245 236 229 228 229 228 227 227 231 234 235 238 242
204 204 205 206 206 204 200 195 192 190 190 190 191 193 194 195 194 193 192 191 188 186 185 185 187 189 189 189 190 193 197 200 203 206 209 211 215 220 224 226 226 228 232 238 244 248 252 256 259 262 265 267 267 266 262 255 242 231 227 228 229 228 228 228 232 235 236 238 240
204 205 205 206 205 201 196 191 189 188 188 190 192 193 193 192 191 191 191 191 189 188 189 190 191 192 192 190 190 193 197 202 204 206 209 211 213 218 223 226 227 228 231 237 243 248 252 256 259 263 266 268 269 267 260 250 238 230 229 231 233 233 231 231 233 235 237 238 241
203 204 205 205 202 198 193 189 187 187 188 191 192 192 191 190 189 190 189 189 189 190 193 196 196 196 195 194 193 194 197 202 204 205 206 208 211 218 224 228 228 229 232 237 243 248 252 256 260 264 267 270 269 265 256 248 242 235 232 234 238 239 238 236 236 237 237 238 239
201 201 202 202 199 195 191 187 186 187 189 192 192 191 190 190 190 189 188 188 188 191 194 196 196 196 196 196 197 198 199 201 202 204 204 205 209 216 223 228 229 230 232 237 242 248 252 256 260 264 267 269 267 262 255 250 247 241 237 237 241 243 242 240 240 240 240 239 238
198 198 198 198 196 194 190 187 187 189 192 194 193 191 190 189 189 189 188 187 189 191 194 194 194 196 197 197 198 199 199 198 199 201 205 207 210 216 222 227 227 228 231 236 242 247 252 256 260 264 266 267 264 259 255 253 250 245 240 239 243 244 244 244 243 244 245 244 243
195 194 194 195 195 193 191 188 189 192 194 195 194 192 191 190 189 189 189 188 190 192 193 193 195 197 198 197 197 197 197 196 197 201 205 209 212 215 220 226 226 226 228 234 241 246 251 255 259 262 263 263 259 255 253 250 248 244 242 241 245 246 246 246 245 247 249 249 251
191 191 192 194 194 193 192 191 193 195 196 196 195 194 192 192 191 191 191 192 192 192 192 193 196 198 198 196 195 194 194 195 198 202 207 211 214 216 218 223 225 224 225 230 238 244 249 253 257 260 261 261 258 253 249 246 244 244 244 244 248 250 251 250 247 249 252 253 257
189 190 192 194 195 194 193 194 196 197 196 195 195 195 194 194 194 193 193 194 194 193 194 195 197 197 196 193 192 192 193 195 200 204 209 212 216 219 220 223 223 222 223 228 235 241 247 251 255 258 260 261 257 252 248 245 245 246 246 245 246 251 254 255 251 250 251 256 260
189 191 193 196 195 195 194 196 197 197 196 195 196 196 195 195 194 194 193 194 194 194 195 196 196 195 193 192 190 190 193 197 201 206 210 213 217 220 222 223 220 217 218 224 232 239 246 251 255 257 258 258 253 248 245 244 246 247 247 245 242 245 251 257 255 252 249 249 254